This is the latest recevied weather packets stored in our database for station/object OE9FWV-10. If no packets are shown the sender has not sent any weather packets the latest 10 day(s).
| Time | Temp. | Humidity | Pressure | Rain* | Wind** | Luminosity | Snow |
|---|---|---|---|---|---|---|---|
| 1787635593 | 26.11° C | 35% | 1016.1 hPa | - | - | - | - |
| 1787629285 | 26.67° C | 35% | 1014.7 hPa | - | - | - | - |
| 1787628385 | 26.67° C | 34% | 1014.4 hPa | - | - | - | - |
| 1787627484 | 26.67° C | 34% | 1014 hPa | - | - | - | - |
| 1787626584 | 27.22° C | 33% | 1013.4 hPa | - | - | - | - |
| 1787625683 | 26.67° C | 35% | 1013.2 hPa | - | - | - | - |
| 1787624783 | 27.22° C | 34% | 1013 hPa | - | - | - | - |
| 1787623882 | 26.67° C | 34% | 1012.9 hPa | - | - | - | - |
| 1787622982 | 26.67° C | 34% | 1012.9 hPa | - | - | - | - |
| 1787622081 | 26.67° C | 34% | 1013 hPa | - | - | - | - |
| 1787621180 | 26.67° C | 34% | 1013 hPa | - | - | - | - |
| 1787620279 | 26.67° C | 33% | 1013 hPa | - | - | - | - |
| 1787619379 | 26.67° C | 34% | 1013.1 hPa | - | - | - | - |
| 1787618478 | 27.22° C | 33% | 1013.1 hPa | - | - | - | - |
| 1787617578 | 26.67° C | 33% | 1013.4 hPa | - | - | - | - |
| 1787616678 | 27.78° C | 32% | 1013.5 hPa | - | - | - | - |
| 1787615778 | 27.22° C | 32% | 1013.5 hPa | - | - | - | - |
| 1787614878 | 28.33° C | 31% | 1013.4 hPa | - | - | - | - |
| 1787613978 | 27.78° C | 32% | 1013.2 hPa | - | - | - | - |
| 1787613077 | 27.22° C | 32% | 1013.6 hPa | - | - | - | - |
| 1787612177 | 27.78° C | 31% | 1013.6 hPa | - | - | - | - |
| 1787611277 | 29.44° C | 30% | 1013.8 hPa | - | - | - | - |
| 1787610377 | 27.78° C | 31% | 1014.1 hPa | - | - | - | - |
| 1787609477 | 27.78° C | 31% | 1014.3 hPa | - | - | - | - |
| 1787608577 | 27.78° C | 31% | 1014.3 hPa | - | - | - | - |
* Rain since midnight (hover to see other rain measurements)
** Current wind speed in m/s (hover to see current wind gust speed)